When you browse on this site, cookies collect data to enhance your experience and personalize the content and advertising you see.
Visit our Privacy Policy to learn more. By continuing to use the site, you agree to this use of cookies and data.
  • In Switzerland
  • List of Countries
  • For 7 days
  • Water Temperature
  • Satellite Maps
  • Weather Map
  • Weather Widgets
  • user-avatar
    Login

    Hourly Weather Tomakhivka

    Today, 26 April, Friday

    Time Temperature Precipitation Wind Pressure Humidity
    00:00 +19°C° 0 mm 1 mps 755 mmHg 49%
    01:00 +19°C° 0 mm 1 mps 754 mmHg 50%
    02:00 +17°C° 0 mm 2 mps 754 mmHg 54%
    03:00 +18°C° 0 mm 1 mps 754 mmHg 57%
    04:00 +18°C° 0 mm 1 mps 754 mmHg 59%
    05:00 +16°C° 0 mm 1 mps 754 mmHg 62%
    06:00 +18°C° 0 mm 1 mps 754 mmHg 60%
    07:00 +19°C° 0 mm 1 mps 754 mmHg 57%
    08:00 +21°C° 0 mm 1 mps 754 mmHg 50%
    09:00 +22°C° 0 mm 1 mps 754 mmHg 48%
    10:00 +23°C° 0 mm 1 mps 754 mmHg 46%
    11:00 +24°C° 0 mm 1 mps 753 mmHg 44%
    12:00 +24°C° 0 mm 1 mps 753 mmHg 42%
    13:00 +25°C° 0 mm 1 mps 753 mmHg 39%
    14:00 +25°C° 0 mm 2 mps 753 mmHg 36%
    15:00 +25°C° 0 mm 1 mps 753 mmHg 39%
    16:00 +24°C° 0 mm 1 mps 753 mmHg 43%
    17:00 +24°C° 0 mm 1 mps 752 mmHg 46%
    18:00 +22°C° 0.2 mm 1 mps 752 mmHg 51%
    19:00 +20°C° 0.2 mm 1 mps 752 mmHg 57%
    20:00 +18°C° 0.2 mm 1 mps 752 mmHg 62%
    21:00 +18°C° 1 mm 1 mps 752 mmHg 69%
    22:00 +16°C° 1 mm 1 mps 752 mmHg 75%
    23:00 +15°C° 1 mm 2 mps 752 mmHg 82%

    Tomorrow, 27 April, Saturday

    Time Temperature Precipitation Wind Pressure Humidity
    00:00 +15°C° 0 mm 1 mps 752 mmHg 81%
    01:00 +15°C° 0 mm 1 mps 752 mmHg 80%
    02:00 +14°C° 0 mm 1 mps 752 mmHg 79%
    03:00 +14°C° 0 mm 1 mps 752 mmHg 80%
    04:00 +14°C° 0 mm 2 mps 752 mmHg 81%
    05:00 +14°C° 0 mm 2 mps 751 mmHg 82%
    06:00 +15°C° 0 mm 1 mps 751 mmHg 74%
    07:00 +18°C° 0 mm 1 mps 751 mmHg 67%
    08:00 +20°C° 0 mm 1 mps 751 mmHg 59%
    09:00 +20°C° 0 mm 2 mps 751 mmHg 52%
    10:00 +23°C° 0 mm 2 mps 751 mmHg 45%
    11:00 +24°C° 0 mm 2 mps 750 mmHg 38%
    12:00 +24°C° 0 mm 2 mps 750 mmHg 39%
    13:00 +24°C° 0 mm 3 mps 750 mmHg 40%
    14:00 +24°C° 0 mm 3 mps 749 mmHg 40%
    15:00 +23°C° 0 mm 2 mps 749 mmHg 44%
    16:00 +23°C° 0 mm 2 mps 748 mmHg 47%
    17:00 +21°C° 0 mm 2 mps 748 mmHg 51%
    18:00 +20°C° 0 mm 2 mps 748 mmHg 52%
    19:00 +20°C° 0 mm 2 mps 748 mmHg 53%
    20:00 +19°C° 0 mm 2 mps 748 mmHg 55%
    21:00 +18°C° 0 mm 2 mps 748 mmHg 57%
    22:00 +18°C° 0 mm 1 mps 748 mmHg 60%
    23:00 +16°C° 0 mm 1 mps 747 mmHg 63%

    Day after tomorrow, 28 April, Sunday

    Time Temperature Precipitation Wind Pressure Humidity
    00:00 +15°C° 0 mm 1 mps 747 mmHg 62%
    01:00 +15°C° 0 mm 1 mps 747 mmHg 60%
    02:00 +15°C° 0 mm 2 mps 747 mmHg 59%
    03:00 +15°C° 0 mm 2 mps 747 mmHg 61%
    04:00 +14°C° 0 mm 2 mps 746 mmHg 63%
    05:00 +14°C° 0 mm 2 mps 746 mmHg 65%
    06:00 +15°C° 0.1 mm 2 mps 746 mmHg 65%
    07:00 +15°C° 0.1 mm 2 mps 746 mmHg 65%
    08:00 +16°C° 0.1 mm 2 mps 746 mmHg 66%
    09:00 +16°C° 0.9 mm 2 mps 746 mmHg 68%
    10:00 +15°C° 0.9 mm 2 mps 746 mmHg 70%
    11:00 +14°C° 0.9 mm 3 mps 746 mmHg 72%
    12:00 +14°C° 0.6 mm 4 mps 746 mmHg 71%
    13:00 +13°C° 0.6 mm 4 mps 746 mmHg 70%
    14:00 +13°C° 0.6 mm 5 mps 746 mmHg 69%
    15:00 +13°C° 0 mm 5 mps 746 mmHg 70%
    16:00 +13°C° 0 mm 4 mps 746 mmHg 71%
    17:00 +13°C° 0 mm 4 mps 745 mmHg 72%
    18:00 +13°C° 0 mm 3 mps 746 mmHg 76%
    19:00 +13°C° 0 mm 2 mps 746 mmHg 80%
    20:00 +12°C° 0 mm 1 mps 746 mmHg 84%
    21:00 +13°C° 0 mm 1 mps 746 mmHg 85%
    22:00 +13°C° 0 mm 1 mps 747 mmHg 86%
    23:00 +13°C° 0 mm 1 mps 747 mmHg 86%

    29 April, Monday

    Time Temperature Precipitation Wind Pressure Humidity
    00:00 +13°C° 0 mm 2 mps 747 mmHg 87%
    01:00 +12°C° 0 mm 3 mps 747 mmHg 88%
    02:00 +12°C° 0 mm 5 mps 748 mmHg 89%
    03:00 +10°C° 0 mm 5 mps 748 mmHg 88%
    04:00 +9°C° 0 mm 5 mps 748 mmHg 86%
    05:00 +8°C° 0 mm 6 mps 748 mmHg 84%
    06:00 +8°C° 0 mm 6 mps 749 mmHg 82%
    07:00 +8°C° 0 mm 6 mps 749 mmHg 80%
    08:00 +8°C° 0 mm 6 mps 750 mmHg 77%
    09:00 +9°C° 0 mm 6 mps 750 mmHg 74%
    10:00 +10°C° 0 mm 6 mps 750 mmHg 71%
    11:00 +11°C° 0 mm 6 mps 750 mmHg 68%
    12:00 +11°C° 0 mm 6 mps 750 mmHg 66%
    13:00 +13°C° 0 mm 5 mps 750 mmHg 65%
    14:00 +13°C° 0 mm 5 mps 750 mmHg 63%
    15:00 +13°C° 0.1 mm 4 mps 750 mmHg 65%
    16:00 +13°C° 0.1 mm 4 mps 750 mmHg 66%
    17:00 +12°C° 0.1 mm 4 mps 750 mmHg 67%
    18:00 +12°C° 0.2 mm 4 mps 750 mmHg 69%
    19:00 +11°C° 0.2 mm 4 mps 750 mmHg 71%
    20:00 +10°C° 0.2 mm 4 mps 750 mmHg 73%
    21:00 +10°C° 0.3 mm 4 mps 750 mmHg 74%
    22:00 +8°C° 0.3 mm 5 mps 750 mmHg 74%
    23:00 +8°C° 0.3 mm 5 mps 750 mmHg 74%

    30 April, Tuesday

    Time Temperature Precipitation Wind Pressure Humidity
    00:00 +7°C° 0.2 mm 5 mps 750 mmHg 76%
    01:00 +7°C° 0.2 mm 6 mps 750 mmHg 78%
    02:00 +7°C° 0.2 mm 6 mps 750 mmHg 79%
    03:00 +7°C° 0.1 mm 6 mps 749 mmHg 81%
    04:00 +5°C° 0.1 mm 6 mps 749 mmHg 82%
    05:00 +5°C° 0.1 mm 6 mps 749 mmHg 84%
    06:00 +5°C° 0.4 mm 6 mps 749 mmHg 85%
    07:00 +5°C° 0.4 mm 6 mps 749 mmHg 85%
    08:00 +5°C° 0.4 mm 6 mps 749 mmHg 86%
    09:00 +5°C° 0.9 mm 6 mps 749 mmHg 87%
    10:00 +5°C° 0.9 mm 6 mps 748 mmHg 88%
    11:00 +5°C° 0.9 mm 7 mps 748 mmHg 88%
    12:00 +6°C° 0.3 mm 7 mps 748 mmHg 88%
    13:00 +6°C° 0.3 mm 7 mps 748 mmHg 87%
    14:00 +6°C° 0.3 mm 7 mps 747 mmHg 87%
    15:00 +6°C° 0.1 mm 7 mps 747 mmHg 87%
    16:00 +7°C° 0.1 mm 6 mps 747 mmHg 87%
    17:00 +7°C° 0.1 mm 6 mps 746 mmHg 88%
    18:00 +7°C° 0.1 mm 6 mps 746 mmHg 89%
    19:00 +5°C° 0.1 mm 6 mps 746 mmHg 89%
    20:00 +5°C° 0.1 mm 6 mps 746 mmHg 90%
    21:00 +5°C° 0.2 mm 6 mps 746 mmHg 91%
    22:00 +5°C° 0.2 mm 6 mps 745 mmHg 92%
    23:00 +5°C° 0.2 mm 6 mps 745 mmHg 92%

    1 May, Wednesday

    Time Temperature Precipitation Wind Pressure Humidity
    00:00 +6°C° 0.6 mm 5 mps 744 mmHg 93%
    01:00 +6°C° 0.6 mm 5 mps 744 mmHg 93%
    02:00 +6°C° 0.6 mm 5 mps 744 mmHg 94%
    03:00 +6°C° 0.3 mm 5 mps 743 mmHg 94%
    04:00 +7°C° 0.3 mm 5 mps 743 mmHg 95%
    05:00 +7°C° 0.3 mm 5 mps 743 mmHg 95%
    06:00 +7°C° 0.1 mm 5 mps 742 mmHg 94%
    07:00 +8°C° 0.1 mm 5 mps 742 mmHg 93%
    08:00 +9°C° 0.1 mm 5 mps 742 mmHg 92%
    09:00 +11°C° 0 mm 4 mps 742 mmHg 89%
    10:00 +12°C° 0 mm 4 mps 741 mmHg 86%
    11:00 +14°C° 0 mm 4 mps 741 mmHg 83%
    12:00 +15°C° 0.5 mm 4 mps 741 mmHg 79%
    13:00 +17°C° 0.5 mm 3 mps 741 mmHg 75%
    14:00 +18°C° 0.5 mm 3 mps 740 mmHg 70%
    15:00 +17°C° 1.5 mm 3 mps 740 mmHg 73%
    16:00 +17°C° 1.5 mm 2 mps 740 mmHg 76%
    17:00 +16°C° 1.5 mm 2 mps 739 mmHg 78%
    18:00 +15°C° 0.5 mm 2 mps 739 mmHg 83%
    19:00 +14°C° 0.5 mm 2 mps 739 mmHg 87%
    20:00 +13°C° 0.5 mm 2 mps 739 mmHg 91%
    21:00 +13°C° 0.6 mm 2 mps 738 mmHg 93%
    22:00 +12°C° 0.6 mm 2 mps 738 mmHg 94%
    23:00 +12°C° 0.6 mm 2 mps 737 mmHg 96%
    Show more